Location: La Oliva
(42.2466°N, 2.9955°E)
Time: 11:12:26
(UTC+00:00)

SL-08 RB Rocket - Pass Details

Date: 22 April 2021
Orbit: 645 x 685 km, 97.8° (Epoch: 10 May)

Event Time Altitude Azimuth Distance (km) Brightness Sun altitude
Rises 18:58:45 0° 169° (S) 3,031 6.8 -4.5°
Reaches altitude 10° 19:00:59 10° 170° (S) 2,117 6.0 -4.9°
Maximum altitude 19:05:37 79° 257° (WSW) 696 4.0 -5.7°
Drops below altitude 10° 19:10:16 10° 345° (NNW) 2,115 6.9 -6.5°
Sets 19:12:30 0° 347° (NNW) 3,027 7.7 -6.9°
